Regional Weather Roundup
Issued by NWS

Home | Current Version | Previous Version | Text Only | Print | Product List | Glossary Off
Versions: 1 2 3 4 5 6 7 8 9 10 11 12 13 14 15 16 17 18 19 20 21 22 23 24 25 26 27 28 29 30 31 32 33 34 35 36 37 38 39 40 41 42 43 44 45 46 47 48 49 50

000
ASUS43 KMKX 052111
RWRWI

WISCONSIN REGIONAL WEATHER ROUNDUP
NATIONAL WEATHER SERVICE MILWAUKEE/SULLIVAN WI
400 PM CDT SUN JUL 05 2015

NOTE: "FAIR" INDICATES FEW OR NO CLOUDS BELOW 12,000 FEET WITH NO
SIGNIFICANT WEATHER AND/OR OBSTRUCTIONS TO VISIBILITY.

WIZ001-002-006>008-014>016-023>028-052200-
NORTHWEST WISCONSIN

CITY           SKY/WX    TMP DP  RH WIND       PRES   REMARKS
SUPERIOR ARPT  CLOUDY    82  68  61 S14G20    29.81F HX  85
ASHLAND        MOSUNNY   83  64  52 S10G22    29.86F HX  84
HAYWARD        PTSUNNY   82  63  52 S17       29.90F HX  83
SIREN          MOSUNNY   85  66  52 S13G20    29.86F HX  87
CUMBERLAND     MOSUNNY   79  64  61 S16       29.90F HX  81
RICE LAKE      CLOUDY    82  65  55 S14       29.92F HX  84
CHETEK         MOSUNNY   83  67  58 S14G21    29.92S HX  85
LADYSMITH      MOSUNNY   82  64  54 S13G20    29.96S HX  83
EAU CLAIRE     MOSUNNY   85  64  49 S15G24    29.91F HX  86
MENOMONIE      MOSUNNY   82  65  56 SE16      29.91F HX  84
NEW RICHMOND   PTSUNNY   83  67  59 S10       29.89F HX  85
OSCEOLA        MOSUNNY   85  69  60 S14G20    29.90S HX  88
$$

WIZ003>005-009-010-017-018-052200-
NORTH CENTRAL WISCONSIN

CITY           SKY/WX    TMP DP  RH WIND       PRES   REMARKS
MANITOWISH WTR MOSUNNY   78  60  54 SW10      29.94F HX  80
ARBOR VITAE    MOSUNNY   80  61  52 S9G17     29.96F HX  81
WOODRUFF       MOSUNNY   80  61  52 S9G17     29.96F HX  81
RHINELANDER    MOSUNNY   82  59  45 SW13      29.99F HX  82
EAGLE RIVER    MOSUNNY   81  57  44 SW10G16   29.96F HX  81
LAND O LAKES   PTSUNNY   80  57  44 SW7G20    29.97F HX  81
PHILLIPS       MOSUNNY   80  63  56 S10G16    29.95F HX  81
TOMAHAWK       SUNNY     80  62  53 S5        29.98S HX  81
MEDFORD        MOSUNNY   80  61  52 S12G17    29.99S HX  81
MERRILL        SUNNY     81  61  51 SW10G17   29.99S HX  82
$$

WIZ029-030-035-036-043>047-052200-
CENTRAL WISCONSIN

CITY           SKY/WX    TMP DP  RH WIND       PRES   REMARKS
WAUSAU         SUNNY     83  60  45 S12       29.97S HX  83
MOSINEE        SUNNY     81  61  50 S13G18    29.99F HX  81
MARSHFIELD     MOSUNNY   82  61  48 S14       29.98S HX  83
STEVENS POINT  MOSUNNY   81  59  47 S13       29.99S HX  81
WAUPACA        SUNNY     85  61  43 S12       29.99S HX  85
WAUTOMA        SUNNY     84  62  47 S10       30.00S HX  84
WISC RAPIDS    MOSUNNY   84  60  44 SW13G21   29.99S HX  84
CAMP DOUGLAS   SUNNY     83  66  56 S15       29.97F HX  85
$$

WIZ011>013-019>022-031-037>040-048>050-052200-
NORTHEAST WISCONSIN

CITY           SKY/WX    TMP DP  RH WIND       PRES   REMARKS
ANTIGO         SUNNY     78  63  58 S12       30.00S HX  80
SHAWANO        SUNNY     84  61  44 S8        29.99S HX  84
OCONTO         SUNNY     82  63  51 S9        29.98F HX  83
STURGEON BAY   SUNNY     75  61  60 S15G22    30.03F
GREEN BAY      SUNNY     83  61  47 SW12      30.00F HX  83
MANITOWOC      SUNNY     74  62  66 MISG      30.03F
APPLETON       MOSUNNY   81  57  44 SW14      30.01F HX  81
CLINTONVILLE   SUNNY     82  59  44 S12G17    29.98F HX  82
OSHKOSH        MOSUNNY   82  63  52 S12       30.00F HX  83
$$

WIZ032>034-041-042-053>061-052200-
SOUTHWEST WISCONSIN

CITY           SKY/WX    TMP DP  RH WIND       PRES   REMARKS
LA CROSSE      MOSUNNY   84  63  49 S16       29.96R HX  85
SPARTA         MOSUNNY   84  59  42 S8        29.98R HX  84
VIROQUA        MOSUNNY   81  63  53 S10       30.00S HX  82
BOSCOBEL       MOSUNNY   83  63  50 SW9       29.99R HX  84
PRAIRIE DU CHI CLOUDY    81  62  52 SE6       29.98S HX  82
PLATTEVILLE    PTSUNNY   82  66  58 S10       30.01S HX  83
$$

WIZ056-057-062-063-064-067-068-052200-
SOUTH CENTRAL WISCONSIN

CITY           SKY/WX    TMP DP  RH WIND       PRES   REMARKS
REEDSBURG      MOSUNNY   83  65  53 S9        29.99S HX  85
BARABOO/DELLS  MOSUNNY   82  60  48 S8        30.00S HX  82
LONE ROCK      MOSUNNY   84  63  49 SW10G16   30.00S HX  85
MINERAL POINT  MOSUNNY   81  63  54 S10       30.02S HX  82
MADISON        MOSUNNY   82  62  50 S13       30.01F HX  83
MIDDLETON      MOSUNNY   84  60  44 S13       30.01F HX  84
WATERTOWN      SUNNY     81  64  56 S10       30.02F HX  82
MONROE         SUNNY     81  63  54 S8        30.02F HX  82
JANESVILLE     MOSUNNY   82  61  47 SW13      30.02F HX  83
$$

WIZ051-052-058>065-066-070>072-052200-
SOUTHEAST WISCONSIN

CITY           SKY/WX    TMP DP  RH WIND       PRES   REMARKS
MILWAUKEE      MOSUNNY   78  60  53 SE16      30.04S
WAUKESHA       MOSUNNY   79  61  53 S14       30.04F HX  80
MILWAUKEE/TIMM NOT AVBL
RACINE         SUNNY     77  59  53 S10       30.06F
BURLINGTON     SUNNY     80  61  52 SW8       30.03F HX  81
KENOSHA        SUNNY     79  61  53 SE14      30.05S HX  80
FOND DU LAC    SUNNY     82  62  50 S10       30.01F HX  83
SHEBOYGAN      SUNNY     76  62  62 SE12      30.03F
WEST BEND      SUNNY     81  59  47 S6        30.02F HX  81
JUNEAU         SUNNY     81  62  52 S9        30.04S HX  82
$$

LSZ147-162-052200-
LAKE SUPERIOR

STATION/POSITION TIME  TEMP    WIND        PRES    WAVE
                       AIR SEA DIR/SP/G            HT/PER
                 (UTC) (F)     (DEG/KT/KT) (MB)    (FT/S)
W MID LAKE BUOY  2050   48 40  110/  8/ 10 1011.6F   0
DEVILS ISLAND    2100   64      60/  6/  7 1010.2F
SAXON HARBOR     2000   83     200/ 12/ 17 1011.5F
$$

LMZ867-665-643>646-052200-
LAKE MICHIGAN

STATION/POSITION TIME  TEMP    WIND        PRES    WAVE
                       AIR SEA DIR/SP/G            HT/PER
                 (UTC) (F)     (DEG/KT/KT) (MB)    (FT/S)
CHAMBERS ISLAND  2000   78     160/  4/ 13 1015.9F
S GREEN BAY BUOY 1900   74 71  210/  8/  8 1017.7F
N MID LAKE BUOY  2050   54 47  190/ 10/ 12 1016.5F   2/ 3
NORTHPORT PIER   2000   69     150/  7/ 13 1016.3F
SISTER BAY       2014   76     180/ 18/ 21   N/A
ALGOMA LAKESHORE 2041          210/ 11/ 13   N/A
KEWAUNEE LAKESHO 2000   64     180/ 12/ 14 1016.4F
SHEBOYGAN LAKESH 2100   64     170/ 11/ 12 1017.1F
PORT WASHINGTON  2000   72     170/  3/  4 1017.9F
ATWATER BUOY     2100   65 62  150/ 14/ 16 1018.0F
MILWAUKEE LAKESH 2000   65     140/ 12/ 14   N/A
KENOSHA   LAKESH 2100   69     170/  8/ 11 1017.3S
$$

TC  - TEMPERATURE IN CELSIUS
VSB - VISIBILITY IN STATUTE MILES
WCI - WIND CHILL INDEX
HX  - HEAT INDEX




USA.gov is the U.S. government's official web portal to all federal, state and local government web resources and services.